Waarnemingen

Advertentie
Mijn weer
Biarritz, Frankrijk (7602): temperatuur & dauwpunt: 18.02.2017 09:00:00 - 24.02.2017 09:00:00 (CET)Biarritz, Frankrijk (7602): temperatuur 5cm: 18.02.2017 09:00:00 - 24.02.2017 09:00:00 (CET)Biarritz, Frankrijk (7602): temperatuur -20cm & temperatuur -100cm: 18.02.2017 09:00:00 - 24.02.2017 09:00:00 (CET)Biarritz, Frankrijk (7602): windsnelheid & windstoten: 18.02.2017 09:00:00 - 24.02.2017 09:00:00 (CET)Biarritz, Frankrijk (7602): windrichting: 18.02.2017 09:00:00 - 24.02.2017 09:00:00 (CET)Biarritz, Frankrijk (7602): luchtdruk: 18.02.2017 09:00:00 - 24.02.2017 09:00:00 (CET)Biarritz, Frankrijk (7602): zicht: 18.02.2017 09:00:00 - 24.02.2017 09:00:00 (CET)Biarritz, Frankrijk (7602): Zonneschijnduur: 18.02.2017 09:00:00 - 24.02.2017 09:00:00 (CET)Biarritz, Frankrijk (7602): neerslag: 18.02.2017 09:00:00 - 24.02.2017 09:00:00 (CET)
Datum & Tijd tt [°C] td [°C] tt 5cm [°C] tt -20cm [°C] tt -100cm [°C] ff [km/u] ff [kn] fx [km/u] fx [kn] dd ppp [hPa] vv [km] sd [min] rr [mm]
24.02.2017 09:00:00 8,5 7,6 7,6 10,6 10,6 0 0 7 4 N 1020,4 20 0 0,0
24.02.2017 08:00:00 8,0 7,2 7,6 10,6 10,6 4 2 8 5 ZZW 1019,6 19 0 0,0
24.02.2017 07:00:00 8,4 7,6 8,4 10,6 10,6 6 3 9 5 Z 1019,2 20 0 0,2
24.02.2017 06:00:00 8,7 7,9 8,8 10,7 10,6 5 3 15 8 ZO 1018,9 18 0 0,0
24.02.2017 05:00:00 8,8 8,2 9,1 10,7 10,6 11 6 34 18 NNO 1018,4 4,8 0 0,6
24.02.2017 04:00:00 9,7 9,2 10,1 10,7 10,6 12 6 21 11 NNO 1017,9 2,7 0 0,8
24.02.2017 03:00:00 9,8 9,5 10,1 10,7 10,6 9 5 19 10 ZW 1017,6 1,2 0 0,2
24.02.2017 02:00:00 9,8 9,3 10,1 10,7 10,6 11 6 23 12 ZW 1017,8 1,6 0 0,6
24.02.2017 01:00:00 10,1 9,3 10,3 10,8 10,6 10 5 24 13 WZW 1018,1 2,5 0 0,0
24.02.2017 00:00:00 11,1 9,8 11,1 10,8 10,6 11 6 19 11 W 1018,1 6 0 0,0
23.02.2017 23:00:00 11,2 8,8 11,4 10,8 10,6 13 7 26 14 W 1018,4 19 0 0,0
23.02.2017 22:00:00 11,6 8,1 11,7 10,8 10,6 11 6 29 16 W 1018,6 20 0 0,0
23.02.2017 21:00:00 11,7 6,8 11,7 10,9 10,6 19 11 35 19 WNW 1017,8 30 0 0,0
23.02.2017 20:00:00 11,6 8,4 11,9 10,9 10,6 14 7 24 13 WNW 1017,4 18 0 0,0
23.02.2017 19:00:00 11,8 9,9 12,0 10,8 10,6 11 6 24 13 W 1017,1 5 0 0,0
23.02.2017 18:00:00 11,7 9,8 12,3 10,8 10,6 14 8 23 13 W 1016,6 6 0 0,0
23.02.2017 17:00:00 11,7 9,8 12,4 10,7 10,6 16 9 27 14 W 1016,4 7 0 0,2
23.02.2017 16:00:00 11,9 9,8 13,2 10,6 10,5 15 8 29 15 W 1016,5 6 0 0,0
23.02.2017 15:00:00 12,1 9,7 13,1 10,6 10,6 18 10 29 16 W 1016,5 6 0 0,0
23.02.2017 14:00:00 11,9 9,5 13,4 10,5 10,6 15 8 28 15 W 1017,0 6 0 0,0
23.02.2017 13:00:00 11,9 9,3 13,4 10,4 10,6 19 10 30 16 W 1017,4 7 0 0,0
23.02.2017 12:00:00 11,8 9,4 12,7 10,3 10,5 13 7 25 13 W 1017,7 7 0 0,0
23.02.2017 11:00:00 11,1 9,2 11,5 10,3 10,5 13 7 30 16 WZW 1017,5 5 0 0,0
23.02.2017 10:00:00 10,7 9,0 11,1 10,3 10,5 22 12 33 18 W 1017,3 6 0 0,0
23.02.2017 09:00:00 10,6 9,2 10,4 10,3 10,5 16 9 29 15 W 1017,0 7 0 0,0
23.02.2017 08:00:00 9,9 9,6 10,0 10,3 10,5 15 8 21 11 W 1016,2 3,6 0 0,0
23.02.2017 07:00:00 9,7 9,4 10,1 10,3 10,5 9 5 21 11 W 1015,7 2,6 0 0,0
23.02.2017 06:00:00 9,9 9,6 10,3 10,3 10,5 6 3 20 11 WZW 1015,8 2,4 0 0,0
23.02.2017 05:00:00 9,9 9,6 10,2 10,3 10,5 5 3 15 8 WZW 1015,9 1,2 0 0,0
23.02.2017 04:00:00 9,8 9,5 10,2 10,4 10,5 8 5 19 10 W 1016,2 0,4 0 0,0
23.02.2017 03:00:00 10,0 9,7 10,4 10,4 10,5 8 4 16 9 WZW 1016,7 0,7 0 0,0
23.02.2017 02:00:00 10,3 10,0 9,8 10,4 10,5 9 5 18 10 W 1017,3 1,0 0 0,0
23.02.2017 01:00:00 9,8 9,5 6,4 10,5 10,5 7 4 11 6 WNW 1017,6 1,2 0 0,2
23.02.2017 00:00:00 9,0 8,4 6,1 10,6 10,5 6 3 11 6 WZW 1018,0 2,6 0 0,0
22.02.2017 23:00:00 9,6 8,5 4,4 10,8 10,5 4 2 8 4 WZW 1018,6 4,0 0 0,0
22.02.2017 22:00:00 10,1 8,5 4,8 10,8 10,5 5 3 9 5 OZO 1018,9 13 0 0,0
22.02.2017 21:00:00 11,3 8,7 6,9 10,9 10,5 5 3 12 6 O 1019,1 21 0 0,0
22.02.2017 20:00:00 11,8 8,6 8,1 10,9 10,5 8 4 23 12 ONO 1019,3 21 0 0,0
22.02.2017 19:00:00 13,5 9,2 12,2 10,9 10,5 10 5 20 11 ONO 1019,3 26 24 0,0
22.02.2017 18:00:00 14,8 9,4 15,3 10,8 10,5 12 7 22 12 ONO 1019,4 26 60 0,0
22.02.2017 17:00:00 15,3 9,4 18,0 10,7 10,5 14 7 23 12 ONO 1019,6 17 60 0,0
22.02.2017 16:00:00 15,4 9,3 18,4 10,5 10,5 16 9 25 14 ONO 1020,3 14 60 0,0
22.02.2017 15:00:00 14,2 9,2 17,6 10,3 10,5 14 8 21 12 ONO 1021,1 13 60 0,0
22.02.2017 14:00:00 12,3 8,8 16,3 10,1 10,5 16 8 23 12 NO 1022,2 12 60 0,0
22.02.2017 13:00:00 11,3 8,7 12,1 10,0 10,5 15 8 23 12 ONO 1023,2 10 32 0,0
22.02.2017 12:00:00 9,3 8,2 10,0 9,9 10,5 16 8 22 12 O 1024,0 9 0 0,0
22.02.2017 11:00:00 8,2 7,9 8,8 9,9 10,5 13 7 22 12 O 1024,3 4,5 0 0,0
22.02.2017 10:00:00 8,0 7,6 8,6 9,9 10,5 11 6 21 11 O 1024,4 0,9 0 0,0
22.02.2017 09:00:00 8,1 7,3 8,5 9,9 10,5 8 4 13 7 O 1024,3 2,6 0 0,0
22.02.2017 08:00:00 7,9 6,7 8,4 9,9 10,5 4 2 9 5 O 1024,0 9 0 0,0
22.02.2017 07:00:00 8,2 6,7 8,6 10,0 10,5 6 3 8 5 ZO 1023,9 10 0 0,0
22.02.2017 06:00:00 8,5 7,1 8,9 10,0 10,5 4 2 12 7 ZO 1024,2 12 0 0,0
22.02.2017 05:00:00 8,5 7,0 8,8 10,0 10,5 5 3 8 5 ZZO 1024,4 14 0 0,0
22.02.2017 04:00:00 8,3 6,9 8,2 10,0 10,4 6 4 9 5 ZZO 1024,8 12 0 0,0
22.02.2017 03:00:00 8,4 7,0 8,7 10,0 10,5 2 1 7 4 ZO 1025,3 10 0 0,0
22.02.2017 02:00:00 8,8 7,4 9,1 10,1 10,5 6 3 8 5 ZZO 1025,6 11 0 0,0
22.02.2017 01:00:00 8,9 7,5 9,2 10,1 10,5 0 0 4 2 N 1025,8 11 0 0,0
22.02.2017 00:00:00 8,9 7,8 8,6 10,1 10,4 2 1 5 3 Z 1026,0 9 0 0,0
21.02.2017 23:00:00 8,3 7,4 5,7 10,3 10,5 4 2 6 4 Z 1026,1 8 0 0,0
21.02.2017 22:00:00 8,9 8,0 5,0 10,3 10,4 4 2 6 3 ZZW 1026,1 7 0 0,0
21.02.2017 21:00:00 9,2 8,0 5,6 10,4 10,4 5 3 5 3 ZZW 1026,0 9 0 0,0
21.02.2017 20:00:00 10,1 8,2 7,8 10,5 10,5 0 0 8 4 N 1026,0 14 0 0,0
21.02.2017 19:00:00 10,8 8,4 10,4 10,5 10,5 6 3 15 8 N 1025,8 19 22 0,0
21.02.2017 18:00:00 11,8 7,5 13,7 10,4 10,5 10 5 14 7 NNW 1025,5 44 60 0,0
21.02.2017 17:00:00 12,4 7,9 15,4 10,3 10,5 10 6 18 10 NNW 1025,6 44 51 0,0
21.02.2017 16:00:00 12,7 6,9 16,5 10,0 10,5 13 7 21 12 NNW 1025,9 46 60 0,0
21.02.2017 15:00:00 13,3 6,6 17,1 9,8 10,5 14 7 20 11 NNW 1026,4 33 60 0,0
21.02.2017 14:00:00 12,7 7,4 17,8 9,5 10,5 13 7 19 11 NNW 1027,2 31 60 0,0
21.02.2017 13:00:00 13,3 6,6 19,4 9,3 10,5 5 3 14 7 NNO 1028,1 36 60 0,0
21.02.2017 12:00:00 13,1 6,0 18,1 9,1 10,5 7 4 11 6 ONO 1028,4 40 60 0,0
21.02.2017 11:00:00 12,0 6,7 15,6 9,0 10,4 4 2 9 5 Z 1028,6 24 60 0,0
21.02.2017 10:00:00 10,0 6,9 10,7 9,1 10,5 3 2 8 5 ZZO 1028,5 16 58 0,0
21.02.2017 09:00:00 6,1 5,5 0,8 9,2 10,4 6 3 11 6 Z 1028,6 9 7 0,0
21.02.2017 08:00:00 4,3 3,4 0,7 9,3 10,5 3 2 11 6 Z 1028,2 3,1 0 0,0
21.02.2017 07:00:00 4,3 3,4 1,0 9,5 10,5 9 5 12 6 ZZO 1027,8 9 0 0,0
21.02.2017 06:00:00 4,8 3,9 0,9 9,6 10,4 3 2 7 4 ZZW 1027,9 6 0 0,0
21.02.2017 05:00:00 4,6 3,6 1,3 9,7 10,5 4 2 11 6 Z 1028,0 4,0 0 0,0
21.02.2017 04:00:00 5,1 3,8 1,3 9,8 10,4 6 4 8 4 Z 1028,4 7 0 0,0
21.02.2017 03:00:00 6,2 4,8 2,8 9,9 10,4 3 2 7 4 WZW 1028,9 7 0 0,0
21.02.2017 02:00:00 7,0 5,5 2,5 10,1 10,4 5 3 6 4 ZW 1029,0 11 0 0,0
21.02.2017 01:00:00 7,8 6,3 2,8 10,2 10,4 4 2 11 6 Z 1029,2 11 0 0,0
21.02.2017 00:00:00 6,8 4,6 2,4 10,3 10,4 0 0 8 4 N 1029,1 10 0 0,0
20.02.2017 23:00:00 8,5 6,3 2,9 10,4 10,4 4 2 6 3 ZO 1029,1 12 0 0,0
20.02.2017 22:00:00 8,4 5,5 3,2 10,5 10,4 2 1 4 2 ZO 1029,2 11 0 0,0
20.02.2017 21:00:00 8,7 5,3 3,7 10,6 10,4 5 3 8 5 NNO 1029,2 19 0 0,0
20.02.2017 20:00:00 10,3 5,7 4,3 10,7 10,4 7 4 12 6 N 1028,7 22 0 0,0
20.02.2017 19:00:00 10,5 5,3 5,3 10,7 10,4 3 1 9 5 NNW 1028,3 33 21 0,0
20.02.2017 18:00:00 12,0 5,8 13,3 10,7 10,4 8 4 11 6 NNW 1028,4 45 36 0,0
20.02.2017 17:00:00 12,4 6,4 13,9 10,6 10,4 8 4 12 6 N 1028,2 40 12 0,0
20.02.2017 16:00:00 12,8 6,2 14,9 10,5 10,4 5 3 8 5 NNW 1028,3 15 0 0,0
20.02.2017 15:00:00 12,3 6,1 13,6 10,4 10,4 4 2 10 5 NW 1028,8 29 0 0,0
20.02.2017 14:00:00 11,9 7,2 13,5 10,3 10,3 7 4 11 6 NNW 1029,4 22 0 0,0
20.02.2017 13:00:00 11,7 7,6 13,0 10,2 10,4 5 3 10 5 N 1029,8 17 0 0,0
20.02.2017 12:00:00 11,8 7,5 13,1 10,2 10,4 0 0 8 4 N 1029,8 19 0 0,0
20.02.2017 11:00:00 11,4 7,7 12,1 10,2 10,4 4 2 8 4 ZZO 1029,8 18 0 0,0
20.02.2017 10:00:00 10,7 8,1 10,8 10,2 10,4 4 2 10 6 Z 1029,6 13 0 0,0
20.02.2017 09:00:00 10,0 8,4 9,7 10,2 10,4 5 3 11 6 ZZO 1029,5 8 0 0,0
20.02.2017 08:00:00 9,6 8,4 9,6 10,2 10,3 3 2 7 4 Z 1029,0 5 0 0,0
20.02.2017 07:00:00 9,6 8,2 9,3 10,3 10,4 3 2 6 4 OZO 1028,8 4,3 0 0,0
20.02.2017 06:00:00 10,0 7,9 9,5 10,3 10,3 2 1 4 2 Z 1028,6 6 0 0,0
20.02.2017 05:00:00 10,4 8,0 9,7 10,3 10,4 2 1 3 2 NNO 1028,8 6 0 0,0
20.02.2017 04:00:00 10,2 8,6 9,6 10,3 10,3 0 0 5 3 N 1028,9 8 0 0,0
20.02.2017 03:00:00 10,1 9,0 9,5 10,3 10,3 3 1 5 3 W 1029,5 7 0 0,0
20.02.2017 02:00:00 10,1 9,2 9,7 10,3 10,3 2 1 5 3 W 1029,6 5 0 0,0
20.02.2017 01:00:00 10,0 9,2 9,8 10,4 10,3 4 2 6 3 Z 1029,6 4,7 0 0,0
20.02.2017 00:00:00 10,4 9,6 9,7 10,4 10,3 2 1 3 1 ZZW 1030,0 4,0 0 0,0
19.02.2017 23:00:00 10,0 9,1 7,6 10,5 10,3 3 1 6 3 WZW 1030,0 4,4 0 0,0
19.02.2017 22:00:00 10,0 8,8 6,2 10,5 10,3 4 2 5 3 ZW 1029,3 4,4 0 0,0
19.02.2017 21:00:00 10,6 9,2 7,0 10,6 10,3 4 2 7 4 WNW 1029,2 10 0 0,0
19.02.2017 20:00:00 10,3 8,9 7,3 10,6 10,3 5 3 10 6 WNW 1029,1 7 0 0,0
19.02.2017 19:00:00 10,9 9,0 10,0 10,6 10,3 6 3 11 6 NW 1028,9 12 18 0,0
19.02.2017 18:00:00 11,8 8,8 12,6 10,6 10,3 8 5 21 11 NW 1028,5 17 26 0,0
19.02.2017 17:00:00 12,5 9,0 14,5 10,4 10,3 13 7 23 12 NW 1028,5 17 45 0,0
19.02.2017 16:00:00 13,1 9,3 14,3 10,3 10,3 15 8 24 13 NNW 1028,7 15 27 0,0
19.02.2017 15:00:00 12,7 9,5 14,5 10,1 10,3 16 8 28 15 NNW 1028,7 12 11 0,0
19.02.2017 14:00:00 12,7 10,1 14,7 10,0 10,3 18 10 29 15 WNW 1028,9 11 4 0,0
19.02.2017 13:00:00 12,8 10,3 14,4 9,8 10,3 19 10 34 18 W 1029,1 10 5 0,0
19.02.2017 12:00:00 13,1 10,8 14,2 9,7 10,3 19 10 31 17 W 1029,1 13 22 0,0
19.02.2017 11:00:00 12,3 9,8 13,7 9,6 10,3 11 6 25 13 WZW 1029,0 13 8 0,0
19.02.2017 10:00:00 11,7 9,8 10,7 9,7 10,3 6 3 11 6 ZZW 1028,4 12 10 0,0
19.02.2017 09:00:00 9,7 8,8 8,3 9,7 10,3 7 4 11 6 ZZW 1027,8 7 2 0,0
19.02.2017 08:00:00 9,0 8,4 7,5 9,7 10,3 6 3 9 5 ZZW 1027,0 3,7 0 0,0
19.02.2017 07:00:00 9,2 8,6 9,4 9,7 10,3 5 3 11 6 ZZW 1026,5 3,6 0 0,0
19.02.2017 06:00:00 10,0 9,5 10,0 9,7 10,3 5 3 17 9 ZW 1026,0 4,3 0 0,0
19.02.2017 05:00:00 9,7 8,8 6,8 9,7 10,3 8 4 16 9 WZW 1025,5 4,4 0 0,0
19.02.2017 04:00:00 8,7 7,0 8,1 9,8 10,3 5 3 8 5 ZZW 1025,1 7 0 0,0
19.02.2017 03:00:00 8,0 6,8 5,6 9,9 10,3 5 3 9 5 Z 1024,8 6 0 0,0
19.02.2017 02:00:00 8,0 6,5 4,7 10,0 10,2 5 3 9 5 ZZW 1024,4 6 0 0,2
19.02.2017 01:00:00 7,8 6,4 4,8 10,1 10,2 6 3 11 6 ZZW 1024,1 8 0 0,0
19.02.2017 00:00:00 7,9 6,7 6,0 10,2 10,2 5 3 10 5 ZZW 1023,9 6 0 0,0
18.02.2017 23:00:00 9,0 7,6 5,8 10,3 10,2 6 3 9 5 ZW 1023,6 6 0 0,0
18.02.2017 22:00:00 9,7 8,1 7,8 10,3 10,2 4 2 10 6 ZW 1023,3 9 0 0,0
18.02.2017 21:00:00 10,1 8,4 9,2 10,4 10,2 8 4 22 12 WZW 1022,8 12 0 0,0
18.02.2017 20:00:00 10,6 8,5 10,3 10,3 10,2 10 6 22 12 WZW 1022,4 13 0 0,0
18.02.2017 19:00:00 11,4 8,8 11,6 10,3 10,2 8 4 18 10 WZW 1022,0 14 0 0,0
18.02.2017 18:00:00 11,8 8,3 12,3 10,2 10,2 10 5 27 14 W 1021,7 18 0 0,0
18.02.2017 17:00:00 12,0 9,6 13,0 10,0 10,2 11 6 20 11 W 1021,2 8 0 0,0
18.02.2017 16:00:00 12,4 9,6 14,3 9,8 10,2 12 7 21 11 W 1021,2 9 4 0,0
18.02.2017 15:00:00 12,9 9,7 15,7 9,6 10,2 16 9 26 14 NW 1021,3 11 39 0,0
18.02.2017 14:00:00 13,4 9,4 18,0 9,4 10,2 16 8 26 14 NW 1021,7 8 60 0,0
18.02.2017 13:00:00 13,2 9,8 17,8 9,2 10,2 16 9 23 12 WNW 1022,2 7 60 0,0
18.02.2017 12:00:00 13,8 6,9 17,1 9,1 10,2 7 4 19 11 WNW 1022,5 8 60 0,0
18.02.2017 11:00:00 13,4 7,4 16,0 9,0 10,2 4 2 6 3 ZW 1022,3 7 60 0,0
18.02.2017 10:00:00 11,0 7,9 10,1 9,1 10,2 4 2 6 4 ZZW 1022,2 6 60 0,0
18.02.2017 09:00:00 5,6 3,6 1,7 9,2 10,2 6 3 15 8 Z 1022,2 4,3 25 0,0

tt = temperatuur
td = dauwpunt
tt 5cm = temperatuur 5cm
tt -20cm = temperatuur -20cm
tt -100cm = temperatuur -100cm
ff = windsnelheid
fx = windstoten
dd = windrichting
ppp = luchtdruk
vv = zicht
sd = Zonneschijnduur
rr = neerslag

Weerstations in de omgeving